HARMAJA Weather Reports


time (UTC)temp
F
wind
direction
speed
knots
gust
knots
rain 1hr
in
rain 24hr
in
rain mn
in
humidity
%
barometer
mb
20260906050454 52 330 18.2 21.7 0.00 0.00 0.00 86 1004.6
20260906044123 52 333 17.4 21.7 0.00 0.00 0.00 83 1004.4
20260906042123 52 331 17.4 20.9 0.00 0.00 0.00 88 1004.2
20260906040452 52 327 18.2 24.3 0.00 0.00 0.00 90 1003.8
20260906032453 52 320 17.4 20.0 0.00 0.00 0.00 90 1003.3
20260906030453 52 323 16.5 20.9 0.00 0.00 0.00 90 1003.0
20260906024453 52 327 17.4 21.7 0.00 0.00 0.00 89 1002.8
20260906022453 52 331 16.5 19.1 0.00 0.00 0.00 90 1002.6
20260906020452 52 334 16.5 20.0 0.00 0.00 0.00 91 1002.4
20260906014454 52 330 16.5 20.9 0.00 0.00 0.00 91 1002.1
20260906012453 53 324 15.6 19.1 0.00 0.00 0.00 91 1002.0
20260906010453 52 330 17.4 20.9 0.00 0.00 0.00 89 1001.8
20260906002453 53 330 16.5 20.0 0.00 0.00 0.00 89 1001.4
20260906000452 53 330 16.5 20.9 0.00 0.00 0.00 89 1001.2
20260905234452 53 330 17.4 20.0 0.00 0.00 0.00 90 1001.0
20260905232452 54 334 15.6 18.2 0.00 0.00 0.00 90 1000.9
20260905230452 54 332 14.8 17.4 0.00 0.00 0.00 89 1000.7
20260905224122 54 333 16.5 18.2 0.00 0.00 0.00 88 1000.5
20260905222451 55 333 16.5 18.2 0.00 0.00 0.00 89 1000.3
20260905220452 55 333 16.5 18.2 0.00 0.00 0.00 90 1000.2
20260905214452 56 332 14.8 16.5 0.00 0.00 0.00 88 1000.0
20260905212453 56 334 14.8 17.4 0.00 0.00 0.00 85 999.9
20260905210452 56 334 15.6 18.2 0.00 0.00 0.00 84 999.7
20260905202452 57 334 14.8 16.5 0.00 0.00 0.00 83 999.4
20260905200453 58 327 13.9 16.5 0.00 0.00 0.00 81 999.2
20260905194452 59 319 14.8 17.4 0.00 0.00 0.00 78 999.0
20260905192452 60 316 13.9 17.4 0.00 0.00 0.00 76 998.8
20260905190451 60 323 14.8 19.1 0.00 0.00 0.00 75 998.7
20260905184452 60 314 13.0 16.5 0.00 0.00 0.00 71 998.6
20260905182451 60 306 11.3 14.8 0.00 0.00 0.00 73 998.5
20260905180449 60 304 8.7 10.4 0.00 0.00 0.00 74 998.4
20260905174120 61 310 9.6 10.4 0.00 0.00 0.00 72 998.3
20260905172450 61 298 7.0 8.7 0.00 0.00 0.00 69 998.1
20260905170450 61 298 7.8 10.4 0.00 0.00 0.00 67 997.9
20260905162121 61 320 5.2 7.0 0.00 0.00 0.00 68 997.5
20260905160451 61 320 5.2 7.0 0.00 0.00 0.00 72 997.4
20260905154121 61 282 5.2 7.8 0.00 0.00 0.00 70 997.1
20260905152452 62 251 6.1 7.8 0.00 0.00 0.00 69 997.1
20260905150450 61 249 8.7 12.2 0.00 0.00 0.00 74 997.0
20260905144451 61 226 9.6 11.3 0.00 0.00 0.00 71 996.8
20260905134450 64 235 5.2 6.1 0.00 0.00 0.00 61 996.4
20260905132120 61 206 8.7 10.4 0.00 0.00 0.00 72 996.3
20260905130454 61 189 7.0 8.7 0.00 0.00 0.00 73 996.2
20260905122120 59 48 1.7 3.5 0.00 0.00 0.00 79 996.3
20260905120450 59 339 8.7 15.6 0.00 0.00 0.00 79 996.2
20260905112452 62 224 8.7 10.4 0.00 0.00 0.00 69 995.8
20260905110449 62 214 9.6 10.4 0.00 0.00 0.00 71 995.5
20260905104450 61 214 8.7 9.6 0.00 0.00 0.00 72 995.4
20260905102450 61 221 7.8 7.8 0.00 0.00 0.00 76 995.4
20260905100449 61 237 6.1 7.0 0.00 0.00 0.00 74 995.2
20260905094448 61 244 7.0 7.8 0.00 0.00 0.00 74 995.1
20260905092449 62 249 7.0 7.8 0.00 0.00 0.00 73 995.0
20260905090450 60 242 6.1 7.0 0.00 0.00 0.00 78 994.9
20260905084450 60 257 6.1 7.0 0.00 0.00 0.00 76 994.8
20260905082452 59 262 5.2 6.1 0.00 0.00 0.00 79 994.7
20260905080448 58 266 4.3 5.2 0.00 0.00 0.00 81 994.6
20260905074119 58 264 4.3 5.2 0.00 0.00 0.00 85 994.6
20260905072448 57 286 3.5 4.3 0.00 0.00 0.00 89 994.5
20260905070452 57 296 2.6 3.5 0.00 0.00 0.00 89 994.3
20260905064448 56 322 2.6 3.5 0.00 0.00 0.00 91 994.2
20260905062448 56 354 3.5 5.2 0.00 0.00 0.00 92 994.0
20260905060448 56 356 4.3 5.2 0.00 0.00 0.00 92 994.0
20260905054449 55 14 3.5 5.2 0.00 0.00 0.00 94 993.9
20260905052448 55 18 4.3 5.2 0.00 0.00 0.00 93 993.9